ASIASAT 6

Last updated on Sat Jun 21 2025 00:02:44 GMT+0000 (Coordinated Universal Time)

1 40141U 14052A 25171.62207801 -.00000351 00000+0 00000+0 0 9992 2 40141 0.0130 284.9161 0000538 170.7669 157.2430 1.00269376 39445
UTC large
Height (km)
Speed (km/s)
/
Latitude / Longitude
Inclination (degrees)
Orbital Period (minutes)
Azimuth
Elevation
Range (km)
Doppler Factor

Next 0 passes for location: London (51.5072 / 0.1276)

Sorry there are no passes over London.